Tracking 17265 objects as of 4-September-2015
HD Live streaming from Space Station

Track Soyuz TMA-18M
and Space Station

SWISSCUBE

Track SWISSCUBE now!
10-day predictions
SWISSCUBE is classified as:


NORAD ID: 35932
Int'l Code: 2009-051B
Perigee: 708.5 km
Apogee: 721.2 km
Inclination: 98.4 °
Period: 98.9 minutes
Semi major axis: 7085 km
RCS: 0.05 m2 (small)
Launch date: September 23, 2009
Source: (SWTZ)

SWISSCUBE is Switzerland's first satellite and will try to detect a phenomenon known as airglow using an off-the-shelf sensor.
Your satellite tracking list
Your tracking list is empty





NASA's NSSDC Master Catalog

Two Line Element Set (TLE):
1 35932U 09051B   15245.85462323 +.00000356 +00000-0 +92525-4 0  9998
2 35932 098.4168 005.1314 0009001 100.2237 259.9975 14.55505016315264

Source of the keplerian elements: AFSPC

N2YO: 380